| time (UTC) | temp C | wind direction | speed KPH | gust KPH | rain 1hr cm | rain 24hr cm | rain mn cm | humidity % | barometer mb |
| 20260504110508 | 8 | 132 | 3.2 | 11.3 | 0.00 | 0.00 | 0.00 | 79 | 1006.3 |
| 20260504100506 | 7 | 127 | 3.2 | 9.7 | 0.00 | 0.00 | 0.00 | 81 | 1006.6 |
| 20260504082005 | 7 | 282 | 0.0 | 4.8 | 0.00 | 0.00 | 0.00 | 74 | 1007.3 |
| 20260504081512 | 7 | 196 | 0.0 | 4.8 | 0.00 | 0.00 | 0.00 | 73 | 1007.2 |
| 20260504081008 | 7 | 146 | 0.0 | 6.4 | 0.00 | 0.00 | 0.00 | 73 | 1007.2 |
| 20260504080507 | 7 | 117 | 0.0 | 6.4 | 0.00 | 0.00 | 0.00 | 73 | 1007.2 |
| 20260504050505 | 7 | 165 | 0.0 | 4.8 | 0.00 | 0.00 | 0.00 | 56 | 1007.6 |
| 20260504050011 | 7 | 142 | 0.0 | 4.8 | 0.00 | 0.00 | 0.00 | 55 | 1007.7 |
| 20260504045506 | 7 | 127 | 1.6 | 4.8 | 0.00 | 0.00 | 0.00 | 55 | 1007.8 |
| 20260504045004 | 7 | 148 | 1.6 | 6.4 | 0.00 | 0.00 | 0.00 | 55 | 1007.7 |
| 20260504044521 | 7 | 258 | 0.0 | 6.4 | 0.00 | 0.00 | 0.00 | 56 | 1007.7 |
| 20260504044010 | 6 | 147 | 1.6 | 6.4 | 0.00 | 0.00 | 0.00 | 56 | 1007.8 |
| 20260504043509 | 6 | 145 | 1.6 | 3.2 | 0.00 | 0.00 | 0.00 | 56 | 1007.9 |
| 20260504043029 | 6 | 164 | 0.0 | 3.2 | 0.00 | 0.00 | 0.00 | 57 | 1007.9 |
| 20260504042510 | 6 | 161 | 0.0 | 1.6 | 0.00 | 0.00 | 0.00 | 58 | 1007.9 |
| 20260504042010 | 6 | 142 | 0.0 | 1.6 | 0.00 | 0.00 | 0.00 | 60 | 1008.0 |
| 20260504041525 | 6 | 145 | 0.0 | 1.6 | 0.00 | 0.00 | 0.00 | 61 | 1008.1 |
| 20260504041008 | 5 | 139 | 0.0 | 4.8 | 0.00 | 0.00 | 0.00 | 63 | 1008.0 |
| 20260504040508 | 5 | 162 | 0.0 | 4.8 | 0.00 | 0.00 | 0.00 | 66 | 1008.0 |
| 20260504040016 | 5 | 127 | 0.0 | 1.6 | 0.00 | 0.00 | 0.00 | 67 | 1008.0 |
| 20260504035504 | 5 | 127 | 0.0 | 0.0 | 0.00 | 0.00 | 0.00 | 69 | 1008.0 |
| 20260504035003 | 4 | 127 | 0.0 | 0.0 | 0.00 | 0.00 | 0.00 | 70 | 1008.0 |
| 20260504034512 | 4 | 127 | 0.0 | 1.6 | 0.00 | 0.00 | 0.00 | 70 | 1008.1 |
| 20260504034007 | 4 | 127 | 0.0 | 1.6 | 0.00 | 0.00 | 0.00 | 68 | 1008.1 |
| 20260504033506 | 4 | 127 | 0.0 | 0.0 | 0.00 | 0.00 | 0.00 | 67 | 1008.1 |
| 20260504033017 | 4 | 127 | 0.0 | 0.0 | 0.00 | 0.00 | 0.00 | 67 | 1008.1 |
| 20260504032508 | 4 | 127 | 0.0 | 1.6 | 0.00 | 0.00 | 0.00 | 66 | 1008.0 |
| 20260504032008 | 4 | 127 | 0.0 | 1.6 | 0.00 | 0.00 | 0.00 | 66 | 1008.0 |
| 20260504031522 | 4 | 127 | 0.0 | 1.6 | 0.00 | 0.00 | 0.00 | 67 | 1007.9 |
| 20260504031010 | 4 | 127 | 0.0 | 1.6 | 0.00 | 0.00 | 0.00 | 67 | 1007.8 |
| 20260504030508 | 3 | 127 | 0.0 | 1.6 | 0.00 | 0.00 | 0.00 | 68 | 1007.9 |
| 20260504030026 | 3 | 153 | 0.0 | 0.0 | 0.00 | 0.00 | 0.00 | 69 | 1007.9 |
| 20260504025512 | 3 | 153 | 0.0 | 1.6 | 0.00 | 0.00 | 0.00 | 70 | 1007.9 |
| 20260504025010 | 3 | 153 | 0.0 | 1.6 | 0.00 | 0.00 | 0.00 | 71 | 1008.0 |
| 20260504024528 | 3 | 157 | 0.0 | 1.6 | 0.00 | 0.00 | 0.00 | 71 | 1008.0 |
| 20260504024003 | 3 | 136 | 0.0 | 1.6 | 0.00 | 0.00 | 0.00 | 72 | 1008.0 |
| 20260504023506 | 4 | 136 | 0.0 | 1.6 | 0.00 | 0.00 | 0.00 | 72 | 1008.1 |
| 20260504023012 | 4 | 136 | 0.0 | 1.6 | 0.00 | 0.00 | 0.00 | 71 | 1008.2 |
| 20260504022507 | 4 | 136 | 0.0 | 1.6 | 0.00 | 0.00 | 0.00 | 72 | 1008.2 |
| 20260504022009 | 3 | 122 | 0.0 | 1.6 | 0.00 | 0.00 | 0.00 | 72 | 1008.3 |
| 20260504021519 | 4 | 121 | 0.0 | 1.6 | 0.00 | 0.00 | 0.00 | 72 | 1008.3 |
| 20260504021007 | 4 | 121 | 0.0 | 0.0 | 0.00 | 0.00 | 0.00 | 71 | 1008.3 |
| 20260504020507 | 4 | 121 | 0.0 | 1.6 | 0.00 | 0.00 | 0.00 | 70 | 1008.3 |
| 20260504020024 | 4 | 121 | 0.0 | 1.6 | 0.00 | 0.03 | 0.00 | 69 | 1008.3 |
| 20260504015509 | 4 | 121 | 0.0 | 1.6 | 0.00 | 0.03 | 0.00 | 69 | 1008.4 |
| 20260504015011 | 5 | 121 | 0.0 | 0.0 | 0.00 | 0.03 | 0.00 | 68 | 1008.4 |
| 20260504014533 | 5 | 121 | 0.0 | 1.6 | 0.00 | 0.03 | 0.00 | 67 | 1008.4 |
| 20260504014010 | 5 | 121 | 0.0 | 1.6 | 0.00 | 0.03 | 0.00 | 67 | 1008.5 |
| 20260504013508 | 5 | 121 | 0.0 | 1.6 | 0.00 | 0.03 | 0.00 | 66 | 1008.5 |
| 20260504013030 | 5 | 121 | 0.0 | 3.2 | 0.00 | 0.03 | 0.00 | 66 | 1008.5 |
| 20260504012506 | 5 | 120 | 0.0 | 3.2 | 0.00 | 0.03 | 0.00 | 67 | 1008.5 |
| 20260504012007 | 5 | 123 | 0.0 | 3.2 | 0.00 | 0.03 | 0.00 | 66 | 1008.5 |
| 20260504011515 | 5 | 146 | 0.0 | 1.6 | 0.00 | 0.03 | 0.00 | 66 | 1008.4 |
| 20260504011004 | 5 | 146 | 0.0 | 0.0 | 0.00 | 0.03 | 0.00 | 66 | 1008.4 |
| 20260504010508 | 5 | 146 | 0.0 | 1.6 | 0.00 | 0.03 | 0.00 | 65 | 1008.3 |
| 20260504010022 | 5 | 146 | 0.0 | 1.6 | 0.00 | 0.03 | 0.00 | 64 | 1008.3 |
| 20260504005506 | 5 | 146 | 0.0 | 1.6 | 0.00 | 0.03 | 0.00 | 64 | 1008.3 |
| 20260504005008 | 5 | 146 | 0.0 | 1.6 | 0.00 | 0.05 | 0.00 | 63 | 1008.2 |
| 20260504004524 | 5 | 146 | 0.0 | 1.6 | 0.00 | 0.05 | 0.00 | 63 | 1008.1 |
| 20260504004010 | 5 | 146 | 0.0 | 0.0 | 0.00 | 0.05 | 0.00 | 61 | 1008.1 |
| 20260504003510 | 5 | 146 | 0.0 | 0.0 | 0.00 | 0.05 | 0.00 | 60 | 1008.0 |
| 20260504003026 | 6 | 146 | 0.0 | 0.0 | 0.00 | 0.05 | 0.00 | 59 | 1008.0 |
| 20260504002510 | 6 | 146 | 0.0 | 0.0 | 0.00 | 0.05 | 0.00 | 57 | 1008.0 |
| 20260504002010 | 6 | 146 | 0.0 | 0.0 | 0.00 | 0.05 | 0.00 | 55 | 1008.0 |
| 20260504001532 | 7 | 146 | 0.0 | 0.0 | 0.00 | 0.05 | 0.00 | 54 | 1008.0 |
| 20260504001007 | 7 | 146 | 0.0 | 1.6 | 0.00 | 0.05 | 0.00 | 52 | 1008.0 |
| 20260504000505 | 7 | 146 | 0.0 | 1.6 | 0.00 | 0.05 | 0.00 | 52 | 1008.0 |
| 20260504000019 | 7 | 146 | 0.0 | 1.6 | 0.00 | 0.05 | 0.00 | 50 | 1008.0 |
| 20260503235507 | 8 | 146 | 0.0 | 1.6 | 0.00 | 0.05 | 0.00 | 50 | 1007.9 |
| 20260503235008 | 8 | 146 | 0.0 | 1.6 | 0.00 | 0.05 | 0.00 | 48 | 1007.9 |
| 20260503234522 | 8 | 146 | 0.0 | 3.2 | 0.00 | 0.05 | 0.00 | 48 | 1007.9 |
| 20260503234008 | 8 | 146 | 0.0 | 3.2 | 0.00 | 0.05 | 0.00 | 46 | 1007.9 |
| 20260503233508 | 9 | 150 | 0.0 | 0.0 | 0.00 | 0.05 | 0.00 | 47 | 1007.9 |
| 20260503233026 | 9 | 150 | 0.0 | 0.0 | 0.00 | 0.05 | 0.00 | 46 | 1007.9 |
| 20260503232511 | 10 | 150 | 0.0 | 1.6 | 0.00 | 0.05 | 0.00 | 45 | 1007.9 |
| 20260503232010 | 10 | 150 | 0.0 | 1.6 | 0.00 | 0.05 | 0.00 | 45 | 1007.8 |
| 20260503231529 | 10 | 143 | 0.0 | 1.6 | 0.00 | 0.05 | 0.00 | 45 | 1007.8 |
| 20260503231007 | 10 | 143 | 0.0 | 1.6 | 0.00 | 0.05 | 0.00 | 45 | 1007.7 |
| 20260503230507 | 10 | 144 | 0.0 | 1.6 | 0.00 | 0.08 | 0.00 | 44 | 1007.7 |
| 20260503230028 | 10 | 143 | 0.0 | 3.2 | 0.00 | 0.08 | 0.00 | 46 | 1007.8 |
| 20260503225504 | 10 | 139 | 0.0 | 3.2 | 0.00 | 0.08 | 0.00 | 46 | 1007.8 |
| 20260503225007 | 10 | 147 | 0.0 | 0.0 | 0.00 | 0.08 | 0.00 | 46 | 1007.8 |
| 20260503224517 | 10 | 147 | 0.0 | 0.0 | 0.00 | 0.08 | 0.00 | 47 | 1007.8 |
| 20260503224008 | 10 | 147 | 0.0 | 0.0 | 0.00 | 0.08 | 0.00 | 47 | 1007.8 |
| 20260503223510 | 10 | 146 | 0.0 | 1.6 | 0.00 | 0.10 | 0.00 | 47 | 1007.8 |
| 20260503223024 | 10 | 146 | 0.0 | 3.2 | 0.00 | 0.10 | 0.00 | 45 | 1007.9 |
| 20260503222510 | 10 | 198 | 0.0 | 3.2 | 0.00 | 0.10 | 0.00 | 46 | 1007.9 |
| 20260503222010 | 10 | 143 | 0.0 | 1.6 | 0.00 | 0.10 | 0.00 | 46 | 1007.9 |
| 20260503221525 | 10 | 143 | 0.0 | 1.6 | 0.00 | 0.10 | 0.00 | 46 | 1007.9 |
| 20260503221010 | 11 | 140 | 0.0 | 1.6 | 0.00 | 0.13 | 0.00 | 46 | 1007.9 |
| 20260503220514 | 11 | 140 | 0.0 | 1.6 | 0.00 | 0.13 | 0.00 | 45 | 1007.9 |
| 20260503220028 | 11 | 139 | 0.0 | 1.6 | 0.00 | 0.13 | 0.00 | 44 | 1007.8 |
| 20260503215511 | 11 | 155 | 0.0 | 1.6 | 0.00 | 0.13 | 0.00 | 45 | 1007.8 |
| 20260503215007 | 11 | 158 | 0.0 | 1.6 | 0.00 | 0.13 | 0.00 | 45 | 1007.9 |
| 20260503214535 | 11 | 134 | 0.0 | 1.6 | 0.00 | 0.13 | 0.00 | 46 | 1007.9 |
| 20260503214009 | 11 | 135 | 0.0 | 1.6 | 0.00 | 0.13 | 0.00 | 43 | 1007.9 |
| 20260503213507 | 11 | 134 | 0.0 | 1.6 | 0.00 | 0.15 | 0.00 | 44 | 1007.9 |
| 20260503213021 | 11 | 136 | 0.0 | 1.6 | 0.00 | 0.15 | 0.00 | 44 | 1007.8 |
| 20260503212503 | 11 | 116 | 0.0 | 1.6 | 0.00 | 0.15 | 0.00 | 43 | 1007.9 |
| 20260503212002 | 11 | 114 | 0.0 | 1.6 | 0.00 | 0.15 | 0.00 | 43 | 1007.8 |
| 20260503211507 | 11 | 115 | 0.0 | 1.6 | 0.00 | 0.15 | 0.00 | 43 | 1007.8 |
| 20260503211003 | 11 | 89 | 0.0 | 3.2 | 0.00 | 0.15 | 0.00 | 43 | 1007.7 |
| 20260503210506 | 11 | 86 | 0.0 | 3.2 | 0.00 | 0.15 | 0.00 | 44 | 1007.8 |
| 20260503210009 | 11 | 107 | 0.0 | 1.6 | 0.00 | 0.15 | 0.00 | 43 | 1007.8 |
| 20260503205505 | 10 | 84 | 0.0 | 1.6 | 0.00 | 0.15 | 0.00 | 43 | 1007.8 |
| 20260503205006 | 10 | 82 | 0.0 | 1.6 | 0.00 | 0.15 | 0.00 | 44 | 1007.8 |
| 20260503204514 | 10 | 84 | 0.0 | 4.8 | 0.00 | 0.15 | 0.00 | 44 | 1007.8 |
| 20260503204008 | 10 | 75 | 1.6 | 4.8 | 0.00 | 0.15 | 0.00 | 42 | 1007.9 |
| 20260503203507 | 10 | 91 | 0.0 | 3.2 | 0.00 | 0.15 | 0.00 | 42 | 1007.9 |
| 20260503203018 | 10 | 89 | 0.0 | 3.2 | 0.00 | 0.15 | 0.00 | 43 | 1007.9 |
| 20260503202507 | 10 | 70 | 0.0 | 3.2 | 0.00 | 0.15 | 0.00 | 44 | 1007.9 |
| 20260503202012 | 10 | 89 | 0.0 | 3.2 | 0.00 | 0.15 | 0.00 | 44 | 1008.0 |
| 20260503201524 | 10 | 74 | 0.0 | 1.6 | 0.00 | 0.15 | 0.00 | 44 | 1007.9 |
| 20260503201004 | 10 | 55 | 0.0 | 3.2 | 0.00 | 0.15 | 0.00 | 44 | 1007.9 |
| 20260503200503 | 11 | 44 | 0.0 | 3.2 | 0.00 | 0.15 | 0.00 | 44 | 1008.1 |
| 20260503200008 | 11 | 146 | 0.0 | 1.6 | 0.00 | 0.15 | 0.00 | 45 | 1008.0 |
| 20260503195502 | 11 | 50 | 0.0 | 3.2 | 0.00 | 0.15 | 0.00 | 45 | 1008.0 |
| 20260503195003 | 11 | 65 | 0.0 | 3.2 | 0.00 | 0.15 | 0.00 | 45 | 1008.1 |
| 20260503194512 | 11 | 104 | 0.0 | 1.6 | 0.00 | 0.15 | 0.00 | 47 | 1008.2 |
| 20260503194007 | 11 | 231 | 0.0 | 1.6 | 0.00 | 0.15 | 0.00 | 47 | 1008.3 |
| 20260503193508 | 10 | 229 | 0.0 | 1.6 | 0.00 | 0.15 | 0.00 | 46 | 1008.4 |
| 20260503193016 | 10 | 242 | 0.0 | 3.2 | 0.00 | 0.15 | 0.00 | 46 | 1008.5 |
| 20260503192508 | 11 | 246 | 0.0 | 3.2 | 0.00 | 0.15 | 0.00 | 45 | 1008.6 |
| 20260503192006 | 11 | 63 | 0.0 | 1.6 | 0.00 | 0.15 | 0.00 | 46 | 1008.6 |
| 20260503191522 | 11 | 64 | 0.0 | 1.6 | 0.00 | 0.15 | 0.00 | 48 | 1008.7 |
| 20260503191006 | 11 | 199 | 0.0 | 1.6 | 0.00 | 0.15 | 0.00 | 50 | 1008.6 |
| 20260503190506 | 10 | 208 | 0.0 | 1.6 | 0.00 | 0.15 | 0.00 | 48 | 1008.8 |
| 20260503190023 | 10 | 178 | 0.0 | 1.6 | 0.00 | 0.15 | 0.00 | 46 | 1008.8 |
| 20260503185503 | 10 | 179 | 0.0 | 3.2 | 0.00 | 0.15 | 0.00 | 47 | 1008.8 |
| 20260503185003 | 10 | 140 | 0.0 | 3.2 | 0.00 | 0.18 | 0.00 | 48 | 1008.9 |
| 20260503184510 | 10 | 243 | 0.0 | 4.8 | 0.00 | 0.18 | 0.00 | 47 | 1008.9 |
| 20260503184007 | 10 | 242 | 0.0 | 4.8 | 0.00 | 0.18 | 0.00 | 49 | 1008.9 |
| 20260503183508 | 10 | 99 | 0.0 | 4.8 | 0.00 | 0.18 | 0.00 | 50 | 1008.9 |
| 20260503183014 | 10 | 114 | 0.0 | 4.8 | 0.00 | 0.18 | 0.00 | 48 | 1009.0 |
| 20260503182505 | 10 | 117 | 1.6 | 4.8 | 0.00 | 0.18 | 0.00 | 49 | 1009.0 |
| 20260503182012 | 10 | 148 | 0.0 | 3.2 | 0.00 | 0.18 | 0.00 | 53 | 1009.0 |
| 20260503181516 | 10 | 323 | 0.0 | 0.0 | 0.00 | 0.18 | 0.00 | 57 | 1009.1 |
| 20260503181010 | 9 | 323 | 0.0 | 1.6 | 0.00 | 0.18 | 0.00 | 54 | 1009.2 |
| 20260503180507 | 9 | 323 | 0.0 | 3.2 | 0.00 | 0.18 | 0.00 | 51 | 1009.2 |
| 20260503180040 | 10 | 62 | 0.0 | 3.2 | 0.00 | 0.18 | 0.00 | 51 | 1009.1 |
| 20260503175507 | 10 | 338 | 0.0 | 4.8 | 0.00 | 0.18 | 0.00 | 50 | 1009.1 |
| 20260503175007 | 10 | 108 | 1.6 | 4.8 | 0.00 | 0.18 | 0.00 | 49 | 1009.1 |
| 20260503174529 | 10 | 78 | 0.0 | 6.4 | 0.00 | 0.18 | 0.00 | 50 | 1009.2 |
| 20260503174003 | 10 | 89 | 0.0 | 6.4 | 0.00 | 0.18 | 0.00 | 50 | 1009.3 |
| 20260503173503 | 10 | 347 | 0.0 | 3.2 | 0.00 | 0.18 | 0.00 | 50 | 1009.2 |
| 20260503173013 | 10 | 91 | 0.0 | 1.6 | 0.00 | 0.18 | 0.00 | 52 | 1009.2 |
| 20260503172507 | 10 | 91 | 0.0 | 3.2 | 0.00 | 0.18 | 0.00 | 56 | 1009.3 |
| 20260503172007 | 9 | 90 | 0.0 | 3.2 | 0.00 | 0.18 | 0.00 | 53 | 1009.3 |
| 20260503171516 | 9 | 89 | 0.0 | 3.2 | 0.00 | 0.18 | 0.00 | 56 | 1009.3 |
| 20260503171010 | 8 | 94 | 0.0 | 3.2 | 0.00 | 0.18 | 0.00 | 55 | 1009.3 |
| 20260503170508 | 8 | 87 | 0.0 | 4.8 | 0.00 | 0.18 | 0.00 | 54 | 1009.4 |
| 20260503151005 | 9 | 307 | 0.0 | 4.8 | 0.00 | 0.18 | 0.00 | 61 | 1010.4 |
| 20260503150509 | 9 | 307 | 0.0 | 4.8 | 0.00 | 0.18 | 0.00 | 58 | 1010.5 |
| 20260503131008 | 8 | 37 | 1.6 | 4.8 | 0.00 | 0.18 | 0.00 | 69 | 1010.9 |
| 20260503130508 | 8 | 321 | 0.0 | 1.6 | 0.00 | 0.18 | 0.00 | 68 | 1010.9 |